Precipitable_Water
0.63 0.65 0.68 0.69 0.69 0.68 0.69 0.70 0.70 0.71 0.70 0.70 0.69 0.69 0.70 0.72 0.73 0.74 0.77 0.76 0.78 0.79 0.79 0.78 0.78 0.78 0.77 0.77 0.76 0.75 0.74 0.72 0.71 0.68 0.64 0.61 0.60 0.59 0.59 0.58 0.56 0.57 0.58 0.57 0.59 0.59 0.58 0.58 0.57 0.55 0.56 0.51 0.47 0.47 0.49 0.50 0.51 0.53 0.56 0.58 0.59 0.69 0.76 0.73 0.64 0.58 0.61 0.75 0.87 0.96 1.12 1.26 1.28 1.37 1.38 1.46 1.51 1.56 1.60 1.62 1.64 1.58 1.50 1.50 1.55
0.72 0.73 0.73 0.73 0.72 0.71 0.71 0.72 0.72 0.72 0.71 0.72 0.73 0.74 0.75 0.75 0.76 0.78 0.78 0.79 0.80 0.79 0.78 0.78 0.77 0.75 0.74 0.73 0.73 0.73 0.71 0.68 0.65 0.62 0.58 0.56 0.55 0.56 0.55 0.55 0.55 0.55 0.56 0.54 0.56 0.57 0.58 0.57 0.56 0.57 0.57 0.54 0.52 0.48 0.47 0.47 0.49 0.50 0.52 0.54 0.55 0.59 0.73 0.76 0.70 0.62 0.56 0.63 0.77 0.95 1.02 1.18 1.16 1.33 1.31 1.37 1.45 1.53 1.54 1.58 1.63 1.59 1.50 1.49 1.52
0.79 0.80 0.79 0.78 0.78 0.78 0.76 0.73 0.75 0.76 0.78 0.78 0.78 0.78 0.78 0.80 0.82 0.80 0.79 0.79 0.79 0.77 0.76 0.74 0.73 0.72 0.71 0.70 0.68 0.66 0.63 0.60 0.58 0.56 0.55 0.53 0.52 0.52 0.53 0.52 0.52 0.51 0.50 0.51 0.52 0.54 0.54 0.54 0.54 0.55 0.55 0.53 0.52 0.50 0.48 0.46 0.48 0.49 0.48 0.51 0.52 0.55 0.63 0.73 0.78 0.73 0.69 0.64 0.69 0.79 0.91 1.03 1.10 1.19 1.34 1.40 1.47 1.52 1.48 1.51 1.55 1.58 1.55 1.48 1.48
0.83 0.82 0.83 0.83 0.82 0.80 0.78 0.79 0.81 0.83 0.82 0.81 0.80 0.81 0.82 0.81 0.82 0.80 0.79 0.78 0.75 0.75 0.75 0.72 0.71 0.69 0.68 0.67 0.65 0.61 0.58 0.56 0.55 0.55 0.53 0.52 0.50 0.49 0.50 0.50 0.49 0.49 0.48 0.49 0.50 0.51 0.50 0.50 0.50 0.52 0.52 0.50 0.50 0.50 0.48 0.47 0.48 0.50 0.49 0.48 0.51 0.53 0.57 0.65 0.75 0.78 0.75 0.70 0.67 0.70 0.83 0.92 1.04 1.21 1.32 1.41 1.45 1.49 1.50 1.51 1.57 1.57 1.57 1.50 1.46
0.87 0.85 0.84 0.83 0.84 0.83 0.84 0.86 0.85 0.83 0.82 0.81 0.80 0.80 0.81 0.81 0.81 0.80 0.78 0.76 0.74 0.73 0.71 0.71 0.69 0.68 0.67 0.64 0.60 0.57 0.55 0.54 0.53 0.51 0.51 0.50 0.48 0.47 0.47 0.47 0.47 0.47 0.47 0.47 0.49 0.49 0.49 0.49 0.49 0.50 0.51 0.49 0.50 0.49 0.51 0.48 0.48 0.51 0.50 0.48 0.49 0.53 0.56 0.59 0.64 0.73 0.77 0.72 0.64 0.65 0.79 0.91 1.02 1.14 1.26 1.27 1.34 1.44 1.51 1.48 1.50 1.53 1.56 1.54 1.47
0.90 0.88 0.88 0.89 0.89 0.88 0.87 0.86 0.83 0.81 0.80 0.80 0.80 0.80 0.80 0.80 0.79 0.79 0.77 0.73 0.72 0.71 0.68 0.68 0.69 0.67 0.63 0.58 0.55 0.53 0.52 0.50 0.49 0.48 0.47 0.46 0.45 0.44 0.44 0.44 0.45 0.45 0.46 0.46 0.46 0.47 0.48 0.49 0.50 0.50 0.49 0.47 0.48 0.49 0.50 0.50 0.48 0.50 0.50 0.49 0.48 0.50 0.52 0.58 0.64 0.68 0.79 0.81 0.75 0.69 0.72 0.77 0.91 1.04 1.18 1.27 1.27 1.32 1.40 1.45 1.50 1.54 1.53 1.46 1.44
0.94 0.92 0.91 0.92 0.90 0.88 0.86 0.84 0.82 0.80 0.79 0.79 0.79 0.79 0.79 0.78 0.78 0.76 0.75 0.73 0.70 0.68 0.69 0.68 0.66 0.61 0.55 0.52 0.50 0.49 0.48 0.47 0.47 0.45 0.44 0.44 0.44 0.44 0.43 0.43 0.43 0.43 0.44 0.44 0.46 0.47 0.47 0.48 0.49 0.51 0.50 0.51 0.52 0.52 0.51 0.51 0.51 0.47 0.49 0.49 0.49 0.48 0.52 0.55 0.55 0.55 0.63 0.79 0.96 0.92 0.78 0.80 0.88 0.91 1.13 1.29 1.34 1.38 1.35 1.34 1.33 1.49 1.53 1.49 1.42
0.93 0.93 0.93 0.91 0.88 0.86 0.82 0.79 0.78 0.77 0.78 0.78 0.78 0.78 0.77 0.77 0.75 0.75 0.74 0.71 0.69 0.68 0.66 0.63 0.58 0.54 0.52 0.51 0.50 0.50 0.48 0.47 0.47 0.47 0.47 0.46 0.45 0.45 0.45 0.45 0.45 0.45 0.45 0.45 0.45 0.44 0.45 0.47 0.49 0.50 0.50 0.52 0.52 0.52 0.53 0.52 0.55 0.51 0.52 0.52 0.51 0.50 0.50 0.51 0.53 0.56 0.59 0.66 0.73 0.79 0.86 0.79 0.84 0.95 1.12 1.24 1.24 1.31 1.39 1.36 1.28 1.34 1.40 1.45 1.46
0.88 0.89 0.87 0.83 0.79 0.79 0.78 0.78 0.78 0.78 0.78 0.78 0.77 0.76 0.75 0.74 0.74 0.72 0.70 0.69 0.69 0.67 0.63 0.58 0.53 0.51 0.51 0.50 0.49 0.49 0.48 0.48 0.48 0.49 0.49 0.48 0.49 0.47 0.45 0.45 0.44 0.44 0.44 0.44 0.45 0.46 0.47 0.48 0.48 0.48 0.50 0.51 0.54 0.56 0.56 0.56 0.56 0.55 0.55 0.58 0.56 0.53 0.50 0.50 0.51 0.54 0.58 0.64 0.68 0.80 0.90 0.86 0.84 0.86 0.92 1.07 1.13 1.18 1.34 1.39 1.34 1.40 1.43 1.40 1.44
0.80 0.79 0.78 0.77 0.77 0.77 0.78 0.78 0.77 0.77 0.76 0.74 0.73 0.73 0.73 0.71 0.70 0.68 0.67 0.67 0.65 0.60 0.55 0.52 0.51 0.50 0.49 0.49 0.49 0.49 0.49 0.49 0.50 0.51 0.51 0.51 0.49 0.47 0.46 0.45 0.44 0.43 0.43 0.43 0.45 0.47 0.48 0.49 0.50 0.50 0.50 0.50 0.51 0.54 0.55 0.55 0.55 0.58 0.56 0.54 0.56 0.56 0.54 0.50 0.49 0.51 0.55 0.57 0.62 0.71 0.74 0.84 0.84 0.83 0.87 0.98 1.13 1.28 1.33 1.36 1.33 1.38 1.41 1.39 1.41
0.72 0.72 0.73 0.75 0.76 0.77 0.77 0.78 0.78 0.74 0.72 0.71 0.70 0.68 0.67 0.67 0.67 0.68 0.67 0.63 0.58 0.54 0.53 0.51 0.51 0.51 0.50 0.49 0.48 0.48 0.49 0.50 0.51 0.51 0.51 0.50 0.50 0.48 0.46 0.45 0.45 0.44 0.43 0.44 0.44 0.46 0.48 0.50 0.50 0.51 0.51 0.51 0.51 0.51 0.51 0.52 0.52 0.54 0.57 0.57 0.59 0.58 0.56 0.54 0.51 0.52 0.52 0.55 0.63 0.72 0.78 0.86 0.90 0.87 0.85 0.95 1.15 1.24 1.29 1.34 1.35 1.37 1.31 1.25 1.21
0.70 0.71 0.72 0.73 0.73 0.73 0.75 0.75 0.73 0.71 0.69 0.68 0.67 0.65 0.66 0.66 0.66 0.65 0.61 0.57 0.56 0.55 0.52 0.51 0.52 0.52 0.52 0.51 0.50 0.50 0.51 0.52 0.52 0.51 0.51 0.50 0.50 0.49 0.47 0.46 0.45 0.44 0.45 0.46 0.47 0.48 0.50 0.51 0.52 0.53 0.53 0.53 0.52 0.50 0.49 0.50 0.52 0.53 0.55 0.57 0.57 0.59 0.61 0.59 0.54 0.52 0.53 0.55 0.59 0.68 0.73 0.80 1.00 1.00 0.89 1.00 1.15 1.26 1.33 1.34 1.34 1.33 1.30 1.28 1.28
0.71 0.72 0.74 0.75 0.74 0.73 0.76 0.75 0.73 0.70 0.69 0.69 0.68 0.66 0.65 0.64 0.62 0.59 0.57 0.57 0.55 0.53 0.52 0.51 0.50 0.51 0.51 0.50 0.50 0.51 0.51 0.52 0.51 0.51 0.51 0.50 0.49 0.49 0.48 0.47 0.46 0.46 0.48 0.49 0.51 0.52 0.52 0.52 0.53 0.54 0.55 0.56 0.57 0.56 0.53 0.50 0.49 0.51 0.53 0.54 0.55 0.56 0.57 0.60 0.62 0.58 0.57 0.56 0.58 0.62 0.68 0.77 0.86 0.91 0.95 1.02 1.23 1.26 1.33 1.31 1.35 1.36 1.34 1.32 1.33
0.73 0.75 0.77 0.76 0.75 0.75 0.74 0.73 0.71 0.70 0.68 0.66 0.65 0.63 0.62 0.59 0.57 0.55 0.54 0.53 0.52 0.51 0.50 0.50 0.51 0.51 0.52 0.51 0.51 0.51 0.52 0.52 0.53 0.52 0.51 0.50 0.49 0.49 0.49 0.47 0.48 0.50 0.51 0.53 0.54 0.54 0.54 0.54 0.54 0.54 0.57 0.58 0.60 0.59 0.57 0.55 0.53 0.50 0.48 0.50 0.50 0.52 0.55 0.56 0.58 0.59 0.60 0.59 0.60 0.59 0.67 0.75 0.80 0.88 0.94 1.03 1.15 1.23 1.26 1.31 1.39 1.38 1.36 1.36 1.43
0.76 0.77 0.74 0.74 0.73 0.74 0.74 0.71 0.68 0.65 0.63 0.61 0.60 0.60 0.57 0.53 0.50 0.50 0.50 0.49 0.48 0.48 0.48 0.48 0.50 0.51 0.52 0.52 0.52 0.51 0.53 0.54 0.54 0.54 0.53 0.53 0.52 0.51 0.51 0.51 0.52 0.53 0.55 0.57 0.58 0.59 0.59 0.59 0.58 0.57 0.58 0.60 0.62 0.62 0.61 0.59 0.57 0.55 0.51 0.48 0.47 0.48 0.51 0.52 0.55 0.56 0.57 0.58 0.60 0.65 0.71 0.79 0.85 0.91 0.94 1.01 1.12 1.15 1.38 1.43 1.41 1.42 1.44 1.49 1.49
0.71 0.73 0.73 0.72 0.72 0.71 0.68 0.65 0.62 0.60 0.58 0.57 0.56 0.54 0.51 0.48 0.47 0.48 0.48 0.48 0.49 0.49 0.49 0.50 0.48 0.48 0.50 0.50 0.50 0.49 0.50 0.53 0.53 0.53 0.53 0.52 0.51 0.52 0.53 0.53 0.53 0.55 0.57 0.60 0.61 0.62 0.62 0.62 0.61 0.61 0.61 0.62 0.63 0.64 0.65 0.64 0.62 0.59 0.56 0.53 0.50 0.48 0.48 0.51 0.55 0.57 0.59 0.59 0.60 0.63 0.70 0.77 0.86 0.93 1.00 1.02 1.10 1.19 1.24 1.42 1.51 1.47 1.39 1.30 1.28
0.71 0.69 0.68 0.67 0.66 0.65 0.61 0.58 0.55 0.54 0.54 0.52 0.49 0.47 0.46 0.46 0.47 0.48 0.46 0.47 0.47 0.46 0.46 0.46 0.47 0.48 0.48 0.49 0.48 0.48 0.49 0.51 0.52 0.52 0.51 0.51 0.52 0.54 0.56 0.57 0.59 0.61 0.62 0.65 0.66 0.66 0.65 0.65 0.64 0.64 0.64 0.64 0.66 0.66 0.66 0.65 0.63 0.61 0.60 0.58 0.55 0.50 0.46 0.48 0.52 0.55 0.57 0.59 0.59 0.61 0.67 0.75 0.81 0.88 0.96 1.01 1.05 1.18 1.20 1.25 1.32 1.39 1.32 1.27 1.25
0.67 0.65 0.63 0.62 0.61 0.59 0.56 0.54 0.51 0.50 0.49 0.47 0.45 0.45 0.46 0.46 0.46 0.48 0.46 0.46 0.46 0.47 0.47 0.46 0.47 0.48 0.49 0.49 0.50 0.49 0.50 0.52 0.52 0.51 0.52 0.55 0.59 0.61 0.63 0.64 0.64 0.65 0.67 0.69 0.70 0.70 0.69 0.68 0.67 0.66 0.65 0.65 0.66 0.66 0.67 0.66 0.62 0.60 0.59 0.59 0.57 0.52 0.47 0.45 0.47 0.51 0.54 0.56 0.58 0.59 0.63 0.72 0.78 0.87 0.94 0.97 0.98 1.12 1.17 1.14 1.33 1.39 1.30 1.29 1.22
0.62 0.60 0.58 0.57 0.55 0.54 0.52 0.49 0.47 0.46 0.45 0.45 0.45 0.45 0.46 0.46 0.48 0.50 0.49 0.49 0.47 0.47 0.47 0.47 0.48 0.51 0.53 0.53 0.55 0.54 0.53 0.53 0.54 0.57 0.60 0.63 0.66 0.68 0.69 0.68 0.66 0.66 0.67 0.67 0.69 0.70 0.70 0.71 0.70 0.70 0.70 0.69 0.68 0.67 0.67 0.67 0.64 0.61 0.59 0.58 0.56 0.54 0.50 0.47 0.42 0.43 0.47 0.50 0.53 0.56 0.59 0.66 0.74 0.82 0.90 0.92 0.88 1.03 1.21 1.25 1.34 1.36 1.30 1.29 1.29
0.58 0.56 0.55 0.54 0.52 0.51 0.49 0.47 0.46 0.46 0.46 0.46 0.47 0.47 0.48 0.48 0.48 0.49 0.49 0.48 0.46 0.47 0.48 0.49 0.50 0.51 0.53 0.53 0.53 0.54 0.54 0.56 0.60 0.63 0.66 0.69 0.71 0.71 0.71 0.68 0.65 0.65 0.66 0.65 0.65 0.66 0.68 0.68 0.70 0.71 0.71 0.71 0.71 0.70 0.69 0.68 0.67 0.64 0.63 0.59 0.56 0.53 0.56 0.52 0.47 0.43 0.43 0.46 0.49 0.53 0.55 0.60 0.68 0.79 0.87 0.86 0.83 0.98 1.21 1.31 1.33 1.36 1.38 1.34 1.32
0.56 0.55 0.54 0.52 0.50 0.49 0.48 0.47 0.47 0.48 0.49 0.48 0.48 0.47 0.48 0.47 0.48 0.47 0.46 0.46 0.47 0.47 0.48 0.50 0.50 0.50 0.53 0.55 0.56 0.57 0.61 0.62 0.65 0.68 0.69 0.70 0.70 0.70 0.67 0.65 0.65 0.64 0.62 0.62 0.62 0.62 0.64 0.66 0.68 0.69 0.70 0.70 0.70 0.70 0.70 0.70 0.69 0.67 0.65 0.62 0.61 0.60 0.62 0.57 0.50 0.45 0.42 0.43 0.46 0.49 0.53 0.58 0.65 0.75 0.83 0.80 0.75 0.89 1.15 1.29 1.36 1.40 1.40 1.38 1.33
0.55 0.53 0.51 0.48 0.46 0.45 0.46 0.48 0.50 0.50 0.49 0.48 0.46 0.46 0.47 0.48 0.47 0.46 0.47 0.47 0.47 0.48 0.48 0.49 0.50 0.52 0.55 0.57 0.60 0.62 0.65 0.66 0.65 0.67 0.68 0.67 0.68 0.67 0.65 0.63 0.64 0.62 0.59 0.57 0.57 0.57 0.58 0.61 0.63 0.67 0.69 0.69 0.69 0.68 0.68 0.69 0.69 0.69 0.68 0.68 0.67 0.64 0.61 0.60 0.55 0.47 0.42 0.40 0.43 0.47 0.51 0.55 0.58 0.65 0.74 0.77 0.73 0.80 1.07 1.24 1.34 1.45 1.49 1.49 1.41
0.50 0.47 0.44 0.43 0.43 0.44 0.46 0.47 0.47 0.48 0.47 0.47 0.46 0.45 0.46 0.46 0.47 0.49 0.49 0.49 0.48 0.47 0.48 0.51 0.53 0.54 0.56 0.59 0.61 0.62 0.63 0.65 0.67 0.66 0.67 0.67 0.65 0.65 0.64 0.63 0.63 0.63 0.59 0.56 0.56 0.57 0.58 0.59 0.60 0.62 0.65 0.68 0.69 0.68 0.67 0.67 0.67 0.67 0.67 0.69 0.69 0.66 0.63 0.61 0.59 0.51 0.42 0.39 0.40 0.44 0.49 0.53 0.55 0.57 0.64 0.70 0.70 0.76 1.00 1.21 1.30 1.40 1.53 1.59 1.53
0.44 0.42 0.41 0.40 0.40 0.42 0.44 0.46 0.47 0.47 0.47 0.47 0.47 0.45 0.46 0.47 0.49 0.49 0.49 0.48 0.48 0.48 0.51 0.54 0.56 0.55 0.55 0.56 0.59 0.62 0.64 0.65 0.65 0.65 0.65 0.64 0.63 0.63 0.62 0.62 0.61 0.60 0.60 0.57 0.57 0.57 0.57 0.57 0.58 0.59 0.59 0.60 0.64 0.68 0.69 0.68 0.67 0.66 0.67 0.66 0.67 0.66 0.64 0.62 0.59 0.53 0.44 0.39 0.39 0.42 0.46 0.51 0.55 0.54 0.59 0.68 0.69 0.72 0.95 1.20 1.26 1.34 1.48 1.61 1.59
0.42 0.40 0.39 0.39 0.40 0.43 0.45 0.47 0.47 0.47 0.47 0.47 0.46 0.46 0.46 0.47 0.46 0.48 0.48 0.49 0.50 0.52 0.55 0.57 0.56 0.56 0.56 0.56 0.58 0.60 0.62 0.62 0.62 0.63 0.63 0.63 0.62 0.61 0.61 0.60 0.59 0.59 0.57 0.56 0.57 0.57 0.57 0.58 0.58 0.58 0.58 0.58 0.58 0.60 0.64 0.68 0.68 0.67 0.66 0.66 0.66 0.66 0.64 0.61 0.58 0.54 0.44 0.39 0.38 0.41 0.46 0.50 0.54 0.57 0.64 0.71 0.71 0.75 0.96 1.16 1.27 1.38 1.50 1.58 1.54
0.41 0.39 0.39 0.41 0.42 0.44 0.45 0.46 0.46 0.46 0.47 0.48 0.47 0.47 0.46 0.46 0.46 0.47 0.47 0.50 0.55 0.57 0.57 0.57 0.57 0.56 0.56 0.57 0.58 0.58 0.60 0.61 0.60 0.61 0.62 0.61 0.60 0.60 0.59 0.59 0.58 0.59 0.59 0.58 0.58 0.58 0.58 0.58 0.59 0.60 0.61 0.60 0.59 0.59 0.61 0.64 0.69 0.69 0.67 0.66 0.65 0.65 0.63 0.60 0.58 0.54 0.44 0.39 0.39 0.41 0.45 0.50 0.56 0.61 0.68 0.74 0.72 0.72 0.90 1.08 1.17 1.23 1.34 1.44 1.46
0.41 0.41 0.42 0.43 0.44 0.45 0.45 0.44 0.45 0.47 0.47 0.47 0.47 0.47 0.48 0.48 0.47 0.48 0.52 0.56 0.58 0.58 0.58 0.57 0.56 0.56 0.56 0.57 0.58 0.58 0.58 0.59 0.59 0.59 0.59 0.58 0.57 0.58 0.58 0.58 0.60 0.61 0.59 0.58 0.58 0.58 0.58 0.58 0.58 0.59 0.60 0.62 0.61 0.59 0.58 0.63 0.68 0.69 0.68 0.66 0.64 0.64 0.63 0.60 0.58 0.53 0.46 0.41 0.40 0.42 0.47 0.52 0.57 0.60 0.65 0.69 0.69 0.75 0.92 1.04 1.12 1.17 1.27 1.39 1.44
0.43 0.43 0.43 0.43 0.43 0.44 0.44 0.45 0.46 0.45 0.46 0.47 0.47 0.48 0.49 0.49 0.50 0.53 0.57 0.59 0.58 0.58 0.57 0.56 0.56 0.56 0.57 0.57 0.57 0.57 0.57 0.57 0.57 0.56 0.56 0.56 0.57 0.58 0.58 0.59 0.58 0.58 0.56 0.56 0.57 0.58 0.57 0.58 0.59 0.59 0.59 0.58 0.57 0.57 0.55 0.57 0.62 0.66 0.67 0.66 0.64 0.65 0.64 0.62 0.62 0.58 0.51 0.46 0.44 0.46 0.48 0.51 0.54 0.58 0.65 0.68 0.67 0.71 0.89 1.02 1.11 1.18 1.27 1.35 1.35
0.44 0.43 0.42 0.42 0.43 0.44 0.45 0.46 0.46 0.46 0.46 0.47 0.48 0.49 0.50 0.52 0.56 0.60 0.65 0.66 0.64 0.60 0.57 0.58 0.59 0.60 0.60 0.58 0.57 0.55 0.55 0.54 0.55 0.58 0.57 0.58 0.58 0.57 0.55 0.55 0.56 0.56 0.57 0.58 0.57 0.57 0.56 0.54 0.54 0.55 0.56 0.55 0.54 0.54 0.54 0.54 0.56 0.62 0.65 0.65 0.63 0.64 0.63 0.62 0.59 0.56 0.51 0.45 0.43 0.44 0.45 0.49 0.53 0.61 0.65 0.65 0.63 0.66 0.86 1.00 1.14 1.20 1.28 1.36 1.35
0.42 0.41 0.41 0.42 0.42 0.43 0.44 0.46 0.47 0.47 0.46 0.46 0.47 0.51 0.57 0.61 0.63 0.62 0.62 0.66 0.65 0.64 0.63 0.62 0.62 0.62 0.60 0.60 0.61 0.55 0.53 0.55 0.57 0.57 0.57 0.58 0.58 0.57 0.57 0.57 0.58 0.58 0.57 0.58 0.58 0.54 0.52 0.51 0.51 0.51 0.52 0.54 0.53 0.53 0.52 0.53 0.53 0.56 0.63 0.65 0.64 0.63 0.61 0.60 0.59 0.56 0.50 0.44 0.42 0.42 0.44 0.47 0.52 0.61 0.64 0.63 0.63 0.65 0.81 0.97 1.10 1.25 1.28 1.29 1.32
0.40 0.39 0.40 0.41 0.43 0.44 0.46 0.47 0.48 0.46 0.46 0.47 0.50 0.51 0.54 0.61 0.66 0.66 0.65 0.64 0.63 0.64 0.65 0.64 0.64 0.63 0.62 0.58 0.59 0.60 0.58 0.56 0.56 0.57 0.57 0.56 0.55 0.55 0.57 0.58 0.56 0.55 0.55 0.54 0.52 0.52 0.51 0.50 0.51 0.52 0.52 0.52 0.53 0.53 0.53 0.53 0.54 0.56 0.60 0.63 0.63 0.62 0.61 0.59 0.59 0.57 0.50 0.44 0.42 0.42 0.44 0.46 0.52 0.61 0.63 0.63 0.62 0.63 0.73 0.94 1.13 1.22 1.28 1.32 1.31
0.38 0.39 0.40 0.43 0.46 0.47 0.48 0.48 0.46 0.46 0.47 0.50 0.52 0.54 0.55 0.56 0.59 0.63 0.63 0.64 0.65 0.65 0.64 0.63 0.63 0.63 0.62 0.60 0.57 0.55 0.56 0.56 0.57 0.56 0.54 0.53 0.55 0.57 0.57 0.56 0.55 0.56 0.58 0.60 0.55 0.53 0.54 0.53 0.53 0.54 0.54 0.53 0.53 0.54 0.54 0.54 0.57 0.58 0.59 0.61 0.61 0.62 0.60 0.59 0.60 0.57 0.50 0.45 0.41 0.42 0.43 0.46 0.54 0.62 0.65 0.64 0.60 0.62 0.76 0.94 1.09 1.18 1.25 1.31 1.34
0.38 0.40 0.43 0.47 0.48 0.49 0.48 0.46 0.46 0.48 0.49 0.52 0.54 0.57 0.56 0.54 0.51 0.53 0.61 0.66 0.65 0.64 0.63 0.62 0.62 0.61 0.59 0.58 0.57 0.55 0.54 0.56 0.56 0.53 0.53 0.54 0.55 0.55 0.56 0.57 0.59 0.61 0.61 0.58 0.55 0.53 0.54 0.54 0.54 0.55 0.56 0.55 0.55 0.55 0.54 0.55 0.58 0.59 0.59 0.61 0.60 0.61 0.61 0.62 0.62 0.57 0.51 0.44 0.42 0.43 0.44 0.47 0.56 0.63 0.65 0.64 0.59 0.58 0.70 0.86 1.05 1.21 1.29 1.29 1.30
0.42 0.45 0.47 0.49 0.49 0.47 0.46 0.47 0.49 0.51 0.53 0.56 0.57 0.56 0.55 0.55 0.56 0.57 0.57 0.57 0.58 0.59 0.61 0.62 0.61 0.59 0.58 0.56 0.55 0.55 0.55 0.56 0.52 0.52 0.54 0.54 0.55 0.57 0.58 0.60 0.62 0.61 0.59 0.54 0.52 0.50 0.51 0.52 0.53 0.54 0.56 0.57 0.58 0.57 0.55 0.56 0.60 0.60 0.60 0.63 0.63 0.63 0.63 0.65 0.62 0.56 0.50 0.45 0.44 0.45 0.46 0.49 0.58 0.63 0.63 0.62 0.59 0.62 0.70 0.83 0.99 1.09 1.16 1.28 1.31
0.46 0.49 0.51 0.50 0.48 0.48 0.50 0.51 0.52 0.53 0.56 0.56 0.56 0.56 0.57 0.59 0.60 0.59 0.56 0.55 0.54 0.54 0.55 0.57 0.59 0.57 0.55 0.54 0.54 0.55 0.55 0.52 0.50 0.53 0.54 0.55 0.56 0.59 0.61 0.59 0.56 0.55 0.55 0.54 0.51 0.50 0.50 0.51 0.51 0.53 0.55 0.57 0.58 0.57 0.55 0.56 0.60 0.60 0.61 0.63 0.65 0.64 0.64 0.64 0.61 0.56 0.49 0.46 0.46 0.47 0.47 0.50 0.58 0.63 0.60 0.59 0.58 0.61 0.69 0.81 0.94 1.02 1.03 1.16 1.30
0.49 0.51 0.51 0.50 0.51 0.52 0.52 0.52 0.54 0.55 0.55 0.56 0.58 0.59 0.61 0.61 0.59 0.58 0.57 0.57 0.56 0.55 0.55 0.55 0.55 0.54 0.54 0.54 0.54 0.54 0.51 0.49 0.51 0.54 0.55 0.54 0.57 0.61 0.56 0.55 0.54 0.54 0.53 0.53 0.53 0.53 0.53 0.54 0.54 0.55 0.57 0.58 0.59 0.58 0.58 0.58 0.60 0.61 0.64 0.66 0.66 0.65 0.65 0.64 0.61 0.55 0.49 0.47 0.47 0.48 0.48 0.51 0.57 0.58 0.58 0.60 0.61 0.63 0.68 0.75 0.86 0.96 1.01 1.09 1.28
0.52 0.51 0.50 0.53 0.54 0.54 0.55 0.55 0.56 0.57 0.57 0.59 0.60 0.61 0.61 0.60 0.59 0.58 0.57 0.57 0.57 0.56 0.55 0.54 0.53 0.52 0.53 0.54 0.54 0.52 0.48 0.49 0.52 0.54 0.53 0.53 0.59 0.60 0.57 0.56 0.55 0.56 0.54 0.54 0.55 0.55 0.55 0.56 0.57 0.57 0.57 0.58 0.58 0.58 0.59 0.60 0.63 0.64 0.66 0.68 0.69 0.67 0.67 0.64 0.60 0.53 0.48 0.47 0.48 0.49 0.49 0.51 0.54 0.53 0.54 0.58 0.63 0.65 0.64 0.70 0.80 0.87 0.97 1.10 1.25
0.53 0.52 0.54 0.55 0.55 0.55 0.55 0.56 0.57 0.58 0.59 0.60 0.61 0.61 0.59 0.59 0.58 0.58 0.57 0.57 0.56 0.55 0.53 0.52 0.51 0.50 0.49 0.49 0.51 0.48 0.45 0.47 0.49 0.53 0.55 0.55 0.58 0.58 0.58 0.57 0.57 0.56 0.55 0.57 0.58 0.57 0.57 0.58 0.59 0.58 0.58 0.59 0.59 0.61 0.62 0.62 0.65 0.66 0.67 0.68 0.70 0.71 0.69 0.65 0.59 0.52 0.49 0.49 0.50 0.50 0.50 0.51 0.51 0.50 0.52 0.59 0.63 0.62 0.59 0.63 0.72 0.82 0.95 1.10 1.26
0.53 0.55 0.56 0.55 0.56 0.56 0.57 0.56 0.57 0.58 0.59 0.60 0.60 0.59 0.58 0.58 0.58 0.57 0.57 0.57 0.55 0.54 0.53 0.52 0.51 0.50 0.50 0.50 0.48 0.48 0.45 0.44 0.45 0.48 0.49 0.51 0.55 0.58 0.58 0.57 0.56 0.56 0.58 0.58 0.60 0.60 0.59 0.58 0.59 0.60 0.61 0.61 0.61 0.61 0.62 0.64 0.66 0.68 0.68 0.68 0.68 0.71 0.69 0.63 0.55 0.52 0.52 0.52 0.52 0.52 0.51 0.51 0.50 0.49 0.50 0.56 0.59 0.57 0.54 0.58 0.68 0.78 0.91 1.11 1.22
0.55 0.56 0.57 0.57 0.57 0.57 0.56 0.57 0.58 0.58 0.58 0.58 0.58 0.58 0.58 0.58 0.57 0.57 0.57 0.56 0.55 0.54 0.53 0.52 0.51 0.50 0.52 0.50 0.46 0.45 0.42 0.42 0.44 0.48 0.50 0.50 0.53 0.56 0.57 0.57 0.57 0.56 0.57 0.59 0.60 0.61 0.61 0.61 0.60 0.62 0.61 0.62 0.63 0.64 0.65 0.66 0.67 0.68 0.68 0.69 0.68 0.65 0.63 0.59 0.55 0.54 0.54 0.55 0.54 0.54 0.52 0.51 0.50 0.51 0.54 0.54 0.53 0.51 0.52 0.58 0.67 0.75 0.91 1.14 1.26
0.57 0.58 0.58 0.58 0.57 0.55 0.55 0.56 0.56 0.57 0.58 0.57 0.57 0.58 0.58 0.58 0.58 0.58 0.57 0.56 0.55 0.54 0.54 0.53 0.52 0.53 0.53 0.52 0.49 0.47 0.44 0.43 0.43 0.47 0.49 0.49 0.52 0.55 0.57 0.58 0.59 0.59 0.60 0.61 0.62 0.63 0.63 0.64 0.64 0.65 0.65 0.65 0.66 0.66 0.67 0.67 0.67 0.68 0.68 0.67 0.65 0.60 0.55 0.54 0.55 0.56 0.57 0.56 0.56 0.56 0.56 0.55 0.52 0.52 0.49 0.50 0.51 0.51 0.55 0.62 0.68 0.78 0.96 1.16 1.29
0.58 0.58 0.57 0.57 0.56 0.54 0.53 0.54 0.55 0.56 0.56 0.55 0.55 0.56 0.56 0.57 0.57 0.57 0.56 0.56 0.55 0.55 0.54 0.54 0.53 0.54 0.54 0.54 0.52 0.49 0.47 0.46 0.47 0.47 0.49 0.50 0.51 0.54 0.57 0.59 0.61 0.62 0.62 0.63 0.64 0.65 0.66 0.66 0.67 0.68 0.68 0.68 0.68 0.69 0.68 0.67 0.67 0.66 0.65 0.62 0.58 0.55 0.54 0.54 0.55 0.56 0.56 0.57 0.58 0.58 0.58 0.57 0.54 0.52 0.50 0.51 0.51 0.52 0.56 0.62 0.71 0.86 1.03 1.19 1.29
0.59 0.58 0.57 0.56 0.55 0.54 0.53 0.53 0.54 0.54 0.52 0.51 0.51 0.52 0.53 0.54 0.55 0.56 0.56 0.56 0.55 0.55 0.55 0.54 0.54 0.54 0.54 0.54 0.54 0.53 0.50 0.49 0.48 0.47 0.47 0.49 0.50 0.52 0.55 0.60 0.62 0.64 0.65 0.67 0.69 0.69 0.69 0.70 0.69 0.71 0.70 0.70 0.71 0.71 0.72 0.70 0.69 0.66 0.62 0.58 0.55 0.54 0.53 0.54 0.55 0.55 0.58 0.61 0.61 0.61 0.62 0.61 0.58 0.54 0.51 0.51 0.52 0.53 0.56 0.62 0.73 0.91 1.11 1.26 1.33
0.57 0.56 0.56 0.55 0.54 0.52 0.51 0.52 0.51 0.50 0.49 0.47 0.47 0.47 0.47 0.49 0.52 0.54 0.55 0.55 0.55 0.55 0.55 0.54 0.54 0.54 0.54 0.55 0.54 0.53 0.53 0.52 0.50 0.48 0.47 0.47 0.49 0.51 0.52 0.55 0.61 0.64 0.66 0.68 0.70 0.71 0.71 0.71 0.72 0.73 0.75 0.76 0.76 0.76 0.75 0.73 0.71 0.66 0.62 0.58 0.55 0.54 0.53 0.54 0.56 0.62 0.65 0.64 0.64 0.65 0.65 0.65 0.63 0.58 0.54 0.52 0.51 0.50 0.53 0.60 0.71 0.87 1.05 1.19 1.29
0.57 0.55 0.53 0.51 0.50 0.49 0.48 0.48 0.47 0.44 0.41 0.40 0.39 0.39 0.40 0.42 0.46 0.50 0.53 0.53 0.54 0.54 0.55 0.55 0.55 0.54 0.54 0.54 0.54 0.53 0.52 0.52 0.53 0.52 0.48 0.47 0.48 0.50 0.52 0.53 0.54 0.57 0.62 0.65 0.68 0.70 0.71 0.71 0.71 0.71 0.70 0.71 0.73 0.71 0.70 0.67 0.64 0.62 0.60 0.58 0.56 0.55 0.56 0.60 0.65 0.69 0.71 0.69 0.70 0.69 0.68 0.66 0.63 0.59 0.55 0.52 0.51 0.50 0.50 0.56 0.68 0.82 1.00 1.18 1.27
0.52 0.50 0.49 0.48 0.47 0.46 0.43 0.41 0.38 0.35 0.33 0.31 0.31 0.31 0.32 0.35 0.38 0.43 0.48 0.51 0.52 0.53 0.53 0.54 0.54 0.54 0.54 0.55 0.55 0.54 0.53 0.53 0.52 0.54 0.54 0.53 0.51 0.50 0.51 0.52 0.53 0.54 0.55 0.58 0.61 0.63 0.65 0.66 0.65 0.64 0.63 0.63 0.63 0.62 0.61 0.60 0.60 0.59 0.59 0.59 0.60 0.63 0.69 0.71 0.70 0.71 0.72 0.74 0.74 0.71 0.67 0.65 0.62 0.58 0.53 0.50 0.49 0.49 0.50 0.55 0.68 0.87 1.04 1.18 1.25
0.49 0.47 0.45 0.44 0.41 0.38 0.35 0.32 0.30 0.29 0.28 0.27 0.26 0.26 0.27 0.29 0.32 0.35 0.40 0.45 0.48 0.50 0.51 0.52 0.53 0.53 0.54 0.54 0.55 0.54 0.54 0.54 0.53 0.52 0.52 0.54 0.56 0.56 0.54 0.52 0.52 0.53 0.54 0.55 0.56 0.55 0.55 0.56 0.56 0.56 0.56 0.57 0.58 0.57 0.57 0.58 0.58 0.60 0.63 0.65 0.68 0.69 0.71 0.74 0.77 0.78 0.78 0.78 0.77 0.72 0.67 0.63 0.60 0.57 0.52 0.49 0.45 0.46 0.47 0.57 0.74 0.92 1.09 1.22 1.25
0.45 0.42 0.39 0.35 0.32 0.29 0.28 0.27 0.26 0.25 0.25 0.25 0.24 0.24 0.24 0.25 0.27 0.29 0.32 0.37 0.42 0.46 0.48 0.49 0.51 0.52 0.53 0.54 0.55 0.55 0.55 0.55 0.55 0.55 0.55 0.55 0.55 0.57 0.58 0.58 0.55 0.53 0.54 0.56 0.57 0.57 0.57 0.57 0.57 0.57 0.58 0.59 0.59 0.59 0.58 0.58 0.60 0.64 0.67 0.71 0.74 0.77 0.79 0.81 0.83 0.85 0.86 0.84 0.78 0.71 0.65 0.60 0.56 0.54 0.51 0.48 0.46 0.45 0.47 0.56 0.73 0.91 1.06 1.19 1.30
0.33 0.31 0.29 0.28 0.27 0.26 0.25 0.24 0.23 0.23 0.22 0.22 0.22 0.22 0.23 0.23 0.24 0.25 0.27 0.30 0.33 0.38 0.42 0.44 0.46 0.48 0.50 0.52 0.54 0.55 0.56 0.57 0.56 0.56 0.56 0.56 0.56 0.57 0.57 0.57 0.57 0.58 0.58 0.57 0.57 0.58 0.59 0.60 0.60 0.61 0.61 0.60 0.60 0.59 0.58 0.60 0.63 0.65 0.69 0.72 0.74 0.75 0.75 0.78 0.81 0.82 0.80 0.77 0.73 0.69 0.64 0.59 0.53 0.48 0.48 0.47 0.47 0.49 0.54 0.65 0.80 0.98 1.11 1.21 1.27
0.27 0.25 0.24 0.24 0.24 0.24 0.24 0.23 0.22 0.21 0.21 0.21 0.21 0.21 0.21 0.22 0.22 0.23 0.24 0.25 0.27 0.30 0.34 0.38 0.41 0.43 0.45 0.47 0.51 0.53 0.55 0.56 0.56 0.56 0.57 0.57 0.58 0.58 0.59 0.59 0.59 0.59 0.60 0.61 0.60 0.58 0.60 0.62 0.62 0.62 0.62 0.62 0.63 0.64 0.66 0.67 0.67 0.67 0.67 0.68 0.70 0.70 0.69 0.68 0.64 0.61 0.61 0.62 0.62 0.61 0.58 0.54 0.50 0.48 0.47 0.48 0.51 0.55 0.64 0.80 0.97 1.07 1.14 1.18 1.23
0.23 0.23 0.22 0.22 0.22 0.22 0.22 0.21 0.21 0.21 0.21 0.20 0.20 0.20 0.20 0.20 0.21 0.21 0.22 0.22 0.23 0.25 0.27 0.30 0.33 0.37 0.39 0.41 0.45 0.49 0.52 0.54 0.56 0.57 0.58 0.58 0.58 0.58 0.59 0.59 0.59 0.59 0.59 0.60 0.62 0.63 0.62 0.63 0.65 0.66 0.65 0.64 0.66 0.64 0.65 0.67 0.68 0.67 0.66 0.66 0.66 0.65 0.63 0.61 0.58 0.56 0.55 0.53 0.53 0.52 0.51 0.48 0.46 0.45 0.47 0.51 0.58 0.69 0.87 1.02 1.10 1.12 1.14 1.20 1.25
Wind_Speed
29 29 30 30 31 31 32 32 33 34 35 36 37 38 38 39 39 40 40 40 40 40 41 42 42 43 43 43 43 43 43 43 43 42 42 42 42 42 42 42 42 41 41 41 41 41 41 41 40 39 39 39 39 38 37 36 36 36 36 36 37 37 36 37 36 33 32 32 31 29 28 27 26 25 23 22 22 23 24 25 26 26 26 26 25
31 31 31 32 32 33 33 34 34 35 36 37 38 38 39 39 39 40 40 40 41 41 42 43 43 44 44 44 44 44 44 44 44 43 43 43 43 43 43 43 43 42 42 42 42 42 42 42 42 41 40 40 40 40 39 39 38 38 37 37 38 38 37 37 37 35 34 33 32 31 29 28 28 27 25 24 23 23 24 25 26 26 27 27 26
32 32 32 33 33 34 34 35 35 36 37 38 38 39 39 39 39 40 40 41 42 43 43 44 44 45 45 45 45 45 44 44 44 44 43 43 43 43 43 43 43 43 44 44 44 43 43 43 43 42 42 42 42 41 41 41 40 39 39 38 39 39 38 38 37 37 36 35 33 32 30 29 29 28 27 26 25 24 24 25 25 26 27 28 27
33 33 33 34 34 35 36 36 37 37 38 38 38 39 39 39 40 40 41 42 43 44 45 45 45 45 45 45 45 45 45 45 44 44 44 43 43 43 43 43 44 44 44 44 43 43 43 43 43 42 42 42 42 42 42 42 41 41 40 39 40 40 39 38 38 37 37 36 35 33 32 30 30 29 28 27 26 26 25 25 26 27 27 28 28
33 34 34 35 36 36 37 37 38 38 38 38 38 39 39 40 41 42 42 43 44 45 45 45 45 45 45 46 46 45 45 45 44 44 43 43 43 43 44 44 44 44 44 44 44 43 43 43 43 42 42 42 42 41 41 42 42 42 42 41 40 40 40 39 39 38 37 37 36 35 33 32 30 30 29 28 27 27 26 26 27 27 28 28 28
36 36 36 37 37 37 37 37 37 37 38 38 39 39 40 41 42 43 44 45 45 45 45 45 46 46 46 46 46 45 45 44 43 43 43 43 43 43 44 44 44 44 44 44 44 44 43 43 43 42 42 42 42 42 41 41 42 42 42 42 41 41 40 39 39 38 37 38 38 37 35 33 32 31 30 29 28 27 27 27 27 28 28 29 29
38 38 38 38 37 37 37 37 37 37 38 39 40 40 41 42 43 44 45 45 45 45 46 47 47 47 46 46 45 44 43 43 42 42 42 42 43 43 44 44 44 44 44 43 43 43 43 43 43 42 42 41 41 41 41 41 41 41 42 42 41 41 40 39 39 38 37 37 37 37 36 35 33 32 31 30 29 28 28 27 27 28 29 30 30
38 38 38 37 37 36 36 36 37 38 39 40 41 42 43 44 45 45 45 45 46 47 48 48 47 46 46 45 45 44 43 43 42 42 42 43 43 44 44 44 44 44 44 43 43 43 43 42 42 42 42 41 41 40 40 40 40 40 41 41 41 41 40 40 39 39 38 37 36 36 37 36 34 33 32 30 30 29 29 28 28 29 29 30 30
38 37 37 36 36 36 36 37 37 39 40 41 42 43 44 45 45 45 45 46 47 48 47 47 46 46 46 46 45 44 44 43 43 43 43 43 44 44 45 45 45 44 44 44 43 43 42 42 42 42 42 42 42 42 41 40 40 40 40 40 41 41 41 40 40 39 39 39 38 36 36 36 35 34 33 32 31 30 29 29 28 29 29 29 30
37 37 37 37 37 37 37 38 38 39 40 41 42 43 44 45 45 45 46 47 47 47 46 46 46 46 46 46 45 44 44 43 43 44 44 44 45 45 45 45 45 44 44 43 43 42 42 42 41 42 42 43 43 42 42 41 41 41 41 40 40 40 40 40 40 40 40 40 39 37 36 36 36 35 33 33 32 31 31 30 29 29 30 30 30
37 37 37 37 37 38 38 39 40 40 41 42 43 43 44 45 46 47 47 47 47 46 46 46 46 46 45 45 45 44 44 44 44 45 45 46 46 46 46 45 45 44 43 43 42 42 42 41 41 41 41 42 41 41 40 40 40 40 41 41 41 40 40 40 40 40 41 40 40 38 36 36 36 35 34 33 33 32 32 31 31 31 31 31 30
36 37 37 38 38 39 39 40 40 41 42 42 43 44 45 46 47 47 47 47 46 46 46 46 45 45 44 44 44 44 44 45 46 46 46 47 47 46 45 44 44 43 42 42 41 41 41 41 41 41 41 40 40 39 38 38 38 39 40 41 42 41 41 41 40 41 41 41 40 39 38 36 35 35 35 34 33 33 33 32 32 32 32 33 32
36 37 37 37 38 38 38 38 39 40 41 42 44 45 46 46 47 47 47 47 46 46 46 46 46 45 45 45 45 45 45 46 47 47 47 47 47 45 44 43 42 42 41 41 42 42 42 42 42 41 40 39 38 37 36 36 37 37 38 39 41 42 42 41 41 41 41 41 41 41 39 37 36 35 35 34 33 33 33 33 33 33 33 34 34
35 34 34 34 35 36 37 38 39 40 42 44 46 47 47 47 47 47 47 47 46 47 47 47 46 45 45 45 46 46 47 47 47 47 47 46 45 44 42 42 41 42 42 42 41 41 41 41 41 41 40 39 37 36 35 35 35 35 36 37 39 42 43 42 41 41 41 42 42 42 40 39 38 36 36 35 34 34 33 33 34 34 33 34 34
31 31 32 34 35 36 38 40 41 43 45 47 48 48 48 48 47 47 47 47 47 46 46 46 46 46 47 47 47 47 47 47 47 47 46 45 43 42 41 41 42 42 41 41 40 39 39 38 38 38 38 37 36 35 35 35 35 35 35 36 37 40 42 43 42 42 42 42 42 42 41 40 39 38 37 37 35 33 33 33 35 34 33 32 33
31 32 34 35 37 39 40 42 44 46 47 48 48 48 48 47 47 47 47 47 46 46 45 46 47 47 48 48 49 49 48 47 47 46 45 44 42 42 42 42 41 41 40 39 38 38 38 37 36 35 36 36 36 36 36 36 36 35 36 36 36 38 41 43 43 43 43 43 43 43 42 41 40 39 38 39 37 35 33 33 34 35 33 33 34
33 35 36 38 39 41 43 44 46 47 47 48 47 47 47 46 46 46 46 45 45 45 46 47 47 47 48 48 48 48 47 46 46 45 43 43 42 41 41 40 40 39 39 38 38 38 38 38 37 37 37 38 38 39 38 38 38 37 37 37 37 38 40 42 43 44 44 44 44 44 44 42 41 40 39 40 39 37 34 33 34 35 35 33 34
36 37 38 40 41 43 44 46 46 47 47 47 47 46 45 45 45 44 44 44 45 45 46 46 46 46 47 46 46 46 45 44 43 42 41 41 40 40 39 39 39 39 40 40 40 40 40 41 40 40 40 40 41 41 40 40 39 39 38 38 38 38 39 41 42 44 44 45 44 45 45 44 42 41 40 40 39 38 37 35 33 35 36 35 35
38 39 40 41 42 44 45 46 46 46 46 45 45 44 44 44 44 44 44 45 46 46 46 46 46 46 45 45 44 44 43 41 40 40 40 39 39 39 39 40 41 42 42 42 43 42 43 43 43 43 42 42 42 42 42 41 41 41 40 39 40 39 39 40 42 43 44 45 44 45 45 45 43 42 41 41 40 39 39 37 35 35 36 36 35
40 40 41 42 43 44 45 45 44 45 44 44 44 44 44 44 43 44 45 46 46 46 46 45 45 44 43 42 42 41 41 40 39 39 39 39 40 40 41 43 43 44 44 44 44 44 44 44 45 45 45 45 44 44 44 43 43 42 42 41 40 40 39 40 42 44 45 45 45 45 46 46 45 43 41 41 40 40 40 39 37 36 36 37 36
40 41 42 43 44 44 44 44 44 44 43 43 43 43 43 43 44 45 45 45 45 45 44 44 43 42 41 41 40 40 40 39 39 40 40 41 42 43 44 45 45 45 46 46 46 46 46 46 46 46 47 47 47 46 46 45 44 44 43 43 41 40 40 41 43 44 45 46 45 45 46 47 46 44 42 41 41 40 40 39 38 37 37 37 37
41 42 43 44 45 45 44 44 43 42 42 43 43 43 43 43 44 44 44 43 43 43 42 41 41 41 40 39 39 39 39 40 41 41 43 44 44 45 46 47 47 48 49 50 50 50 50 49 49 49 49 49 49 49 48 48 47 45 45 44 43 41 41 42 43 44 45 46 46 46 47 47 47 46 44 42 41 40 40 40 39 37 36 38 38
42 43 44 44 44 43 43 42 41 41 42 42 42 42 42 43 43 42 41 41 41 41 40 40 39 39 39 39 39 39 40 41 42 43 44 45 46 47 49 50 51 52 53 53 53 52 52 51 51 51 51 51 51 51 50 50 49 48 46 45 44 43 42 43 44 45 45 46 47 47 48 48 48 47 45 43 42 40 40 40 40 37 35 37 38
43 43 43 43 42 41 41 41 41 41 41 40 40 40 41 41 40 39 39 39 39 39 38 38 38 38 39 39 40 40 41 42 43 44 46 47 49 51 52 53 53 53 53 53 53 52 52 51 51 51 51 52 52 52 52 51 50 50 48 47 45 44 43 44 46 46 46 47 48 48 49 49 48 47 46 44 42 41 39 40 40 37 34 36 38
42 42 42 41 40 40 40 40 40 39 39 39 39 39 39 38 38 37 37 37 37 37 37 37 37 38 39 40 40 41 42 43 45 46 48 50 52 53 53 53 53 53 53 53 52 52 51 50 50 50 50 51 51 51 52 52 52 51 50 49 47 45 45 45 47 47 48 49 49 49 49 50 49 47 46 44 43 41 40 39 40 38 35 35 37
40 40 39 38 38 38 37 37 37 37 37 37 38 37 36 36 35 35 35 35 35 35 36 37 38 38 39 40 41 43 44 45 47 48 50 51 52 52 53 53 53 52 51 51 50 50 49 48 48 47 47 47 48 48 49 50 51 51 51 50 48 47 46 47 48 49 49 50 50 50 50 50 49 47 46 45 44 43 41 39 40 39 37 36 36
36 36 36 35 34 34 34 35 35 35 36 35 35 34 34 34 34 34 33 33 34 35 36 36 37 38 40 42 43 44 45 46 47 48 49 49 50 50 50 49 48 47 46 46 46 46 46 47 47 47 46 46 46 46 47 48 49 49 50 50 49 48 47 48 49 50 50 50 51 50 50 50 49 48 47 46 44 43 41 40 40 39 38 36 36
32 31 31 31 31 32 33 34 34 33 33 33 32 32 32 32 32 31 31 32 33 34 35 36 37 39 41 42 44 45 45 46 47 48 48 48 48 47 45 44 43 43 43 44 44 44 45 46 46 46 46 46 46 46 46 47 48 48 49 49 49 49 48 48 50 51 51 51 51 51 51 51 50 49 48 46 45 44 42 40 40 39 38 37 37
27 28 29 29 30 31 32 32 32 31 31 31 30 30 30 30 30 30 31 32 33 33 35 37 39 40 41 42 43 45 46 46 47 48 48 47 45 44 43 42 43 43 44 45 45 45 45 46 46 45 45 45 45 46 46 47 48 48 49 50 50 49 49 49 50 52 52 52 53 53 52 52 51 49 48 46 45 44 42 40 40 39 38 37 38
26 27 28 29 30 31 31 31 30 29 29 28 28 29 29 28 29 30 30 31 32 34 36 38 39 40 41 42 43 45 46 47 47 47 46 45 43 43 44 44 45 45 46 46 46 46 46 46 45 45 46 46 46 46 46 47 47 47 48 50 50 50 49 49 51 52 52 53 54 54 53 53 52 50 49 47 46 44 42 40 40 39 38 38 38
26 27 28 29 29 30 30 29 27 27 26 26 26 27 27 28 28 29 29 30 32 35 36 38 38 39 41 42 43 44 45 46 47 46 44 42 42 42 42 43 43 44 45 45 46 46 46 45 45 44 44 45 47 47 47 47 47 46 47 49 50 50 49 49 51 52 52 53 54 55 54 54 52 51 49 48 46 45 43 41 40 39 38 38 38
26 28 29 29 28 28 27 26 25 24 24 24 24 25 26 27 27 27 29 31 33 35 36 37 38 39 40 41 42 42 43 44 44 42 40 40 40 39 38 39 40 41 41 42 42 43 44 44 44 44 43 44 46 47 47 47 47 46 47 49 50 50 49 49 51 52 53 53 55 55 55 55 53 51 50 48 47 45 43 41 40 39 38 38 38
28 28 28 27 26 25 23 22 22 22 22 22 23 23 24 25 26 27 29 31 32 34 35 36 37 38 39 40 40 41 42 41 40 38 37 36 35 34 35 35 35 35 35 35 37 39 40 41 41 42 43 43 44 46 47 48 47 47 47 48 49 49 49 49 50 52 53 54 55 55 55 55 54 52 50 48 47 46 44 43 41 38 37 38 38
27 27 25 23 22 21 20 19 19 20 20 20 21 22 22 23 25 27 29 30 32 33 34 34 35 36 37 38 39 39 39 37 35 33 32 31 30 30 31 30 29 28 27 27 28 30 32 35 37 38 40 42 43 45 46 48 48 47 48 48 48 48 48 49 50 52 53 54 55 55 55 55 54 52 50 48 47 46 45 44 42 39 37 37 38
23 21 20 18 17 17 17 17 17 18 18 18 18 19 21 23 24 26 28 30 31 32 33 33 33 34 35 36 37 37 35 33 30 28 27 27 27 27 27 25 23 22 20 19 17 18 22 27 31 34 36 39 41 43 45 47 48 48 48 48 48 48 48 49 50 52 53 54 55 54 55 55 54 52 50 48 47 46 45 45 43 40 37 37 37
18 16 15 14 14 14 14 15 15 15 15 15 16 18 20 22 24 26 28 29 30 31 31 31 31 32 34 35 35 34 32 29 27 24 23 24 24 23 22 21 18 16 15 12 9 9 14 19 25 29 32 35 39 41 44 46 48 48 47 47 47 48 49 49 50 51 53 54 54 54 55 55 54 52 50 48 47 47 46 45 43 41 38 37 37
14 12 11 11 12 12 12 12 12 12 12 14 16 18 20 22 24 26 27 29 29 29 29 29 30 31 32 33 32 31 29 27 24 21 20 22 22 20 19 17 15 12 10 7 4 5 10 15 20 25 29 32 35 39 42 45 46 46 47 47 46 47 49 49 50 52 53 54 54 54 55 55 53 52 50 48 47 46 46 45 44 41 39 38 38
9 8 8 9 10 10 9 9 9 10 11 13 15 18 20 22 24 26 27 28 28 28 28 28 29 31 32 31 30 29 28 26 22 18 19 20 19 18 17 15 13 10 7 4 1 4 9 13 18 22 26 30 34 37 40 42 44 45 46 46 46 47 48 48 49 52 53 53 53 54 54 54 52 51 50 48 47 46 46 45 44 42 39 38 38
6 6 6 7 7 7 7 8 9 10 12 13 15 18 20 22 24 25 26 27 28 27 27 27 29 31 31 30 28 28 27 24 20 17 18 19 18 17 16 14 11 8 5 3 2 4 8 12 17 21 25 29 32 36 39 41 42 43 44 45 45 46 46 47 49 52 53 52 52 53 53 52 51 50 49 48 47 46 46 45 44 42 39 37 37
4 5 5 6 6 6 7 8 9 10 12 13 16 18 20 21 23 25 26 27 27 27 27 27 29 30 30 29 28 28 27 24 21 17 16 17 18 17 16 14 12 9 6 5 4 6 9 12 15 20 25 29 32 35 37 39 41 42 43 44 45 45 46 47 50 51 51 51 52 52 52 51 50 49 48 48 47 46 45 44 43 42 40 37 37
4 4 5 6 6 7 8 9 10 11 12 13 15 17 19 21 23 24 26 27 27 27 27 27 28 30 30 29 29 29 27 25 22 18 15 16 17 16 15 14 12 10 8 6 6 8 10 13 16 20 24 28 31 34 36 38 39 41 42 43 43 44 46 48 50 50 50 50 51 51 50 50 50 49 47 47 46 46 45 43 42 41 40 38 37
4 4 5 6 7 8 8 9 10 10 11 13 15 17 19 21 23 24 26 27 27 27 27 27 28 29 30 29 29 29 27 26 24 20 16 15 15 15 14 13 12 11 10 9 10 11 12 14 16 19 23 26 29 31 34 36 38 40 41 41 42 44 47 48 49 49 49 50 50 49 49 49 49 48 47 46 45 45 44 43 42 41 39 38 37
4 5 6 7 7 8 8 9 9 10 12 13 15 17 19 21 23 24 26 27 28 28 28 27 28 29 29 29 29 29 28 27 26 23 19 16 14 14 14 13 11 11 10 11 12 13 14 15 16 19 22 25 27 30 33 35 36 38 39 41 43 45 47 47 48 48 49 49 48 48 48 48 48 47 46 45 45 44 44 43 42 40 38 37 37
5 6 7 8 8 8 8 9 10 11 12 13 15 17 19 21 23 24 25 27 28 28 28 28 28 29 29 29 29 28 28 28 27 26 23 19 16 14 13 12 11 10 10 10 11 12 13 14 15 18 21 24 26 28 31 32 34 36 39 41 43 45 45 46 47 47 47 47 47 47 48 48 47 46 45 45 45 44 44 43 42 40 38 37 37
7 8 8 9 9 9 9 10 10 12 13 14 15 17 19 21 23 24 25 27 28 29 28 28 28 28 29 29 29 28 28 28 28 28 26 24 20 17 14 13 12 11 10 10 9 10 11 12 14 16 19 21 23 26 28 30 33 36 39 41 42 43 44 44 45 45 46 46 46 47 47 46 45 45 44 44 44 44 43 42 41 40 38 37 37
10 10 10 10 10 10 10 11 11 12 13 14 15 17 19 20 22 24 25 26 28 29 29 28 28 28 29 29 29 29 29 29 28 28 28 27 25 22 19 16 14 12 11 11 10 10 10 11 13 16 18 20 22 25 28 31 33 36 38 39 40 41 42 43 44 44 45 46 46 46 46 45 44 44 43 43 43 43 42 42 41 40 38 37 37
12 12 12 12 12 12 11 12 12 13 14 15 16 17 19 20 22 23 25 26 27 28 29 29 28 28 28 29 29 30 29 29 29 28 28 28 27 26 24 22 20 17 15 14 13 13 13 14 15 16 19 21 24 26 29 31 33 34 35 36 38 39 40 42 43 43 44 45 45 45 44 43 43 42 42 42 42 42 42 41 41 40 38 37 36
13 13 13 13 13 13 13 13 13 14 15 15 16 17 19 20 21 23 24 25 27 28 29 29 29 28 28 28 29 29 29 29 29 29 28 28 27 27 27 26 25 23 22 20 19 19 18 18 19 19 20 21 23 25 27 29 31 32 33 34 35 37 39 41 41 42 42 43 44 43 42 42 42 41 41 41 41 41 41 41 41 40 39 37 37
14 13 13 14 14 14 15 15 15 15 16 16 17 18 19 20 21 22 23 25 26 27 28 29 29 29 28 28 29 29 29 29 29 29 28 28 27 27 26 26 26 25 24 24 23 22 21 21 21 21 21 21 21 22 24 26 28 29 31 32 34 36 38 39 40 41 41 42 42 41 41 41 41 41 40 40 40 40 40 41 40 40 39 38 37
15 15 14 14 14 14 15 15 16 16 16 17 18 18 19 20 21 22 23 24 25 26 27 28 29 29 29 28 28 29 29 29 29 28 28 28 27 26 26 25 25 25 24 23 22 22 21 21 20 20 20 20 20 21 22 23 25 27 28 30 32 34 36 38 39 40 40 40 40 40 40 40 40 40 40 40 40 40 40 40 40 40 39 38 38
16 16 15 15 15 15 16 16 16 17 17 18 18 19 20 20 21 22 23 24 25 25 26 27 28 29 29 29 28 28 29 28 28 28 28 27 27 26 25 25 24 24 23 22 21 20 20 19 19 19 19 19 19 20 21 22 23 25 26 28 30 32 34 35 36 38 38 39 39 39 39 40 40 39 39 39 39 39 39 39 39 39 39 38 37
Wind_Direction
268 268 269 270 271 272 272 272 272 273 273 274 275 276 277 279 280 281 281 282 283 283 284 286 287 287 287 287 287 287 287 287 287 286 285 284 283 282 282 282 281 281 281 280 279 278 277 275 274 273 272 271 272 271 270 268 266 264 263 262 262 261 260 259 258 257 256 256 255 255 255 254 253 252 251 249 244 240 236 233 231 230 228 227 226
269 269 270 271 272 273 273 273 273 274 274 275 276 277 278 279 280 280 281 282 282 283 285 286 287 287 287 287 287 287 287 287 286 285 284 283 283 282 282 281 281 281 280 279 279 278 276 275 273 272 271 270 269 269 268 267 265 263 262 261 260 260 259 258 257 255 255 254 253 253 252 251 250 249 248 246 243 240 237 234 231 229 227 226 225
269 270 271 273 274 274 273 273 274 275 275 276 276 277 278 279 280 280 281 282 283 284 286 287 288 288 288 288 287 287 287 286 285 284 283 283 283 282 282 282 281 281 280 280 279 277 276 274 273 272 271 269 268 267 266 265 264 262 261 260 259 258 258 257 256 255 253 252 251 250 250 249 247 247 245 244 242 239 236 234 231 229 227 225 224
269 271 272 273 275 275 274 275 275 276 276 277 277 277 278 280 280 281 282 284 285 286 287 288 288 288 288 288 287 287 286 285 284 284 283 283 282 282 282 282 282 282 281 280 279 277 276 274 273 272 270 268 267 266 265 264 262 261 260 259 257 256 256 255 255 254 252 250 249 248 247 247 246 245 243 242 241 238 235 234 231 229 226 224 223
270 271 272 273 275 275 275 276 276 276 277 277 277 278 280 281 282 282 284 286 286 287 287 288 288 288 288 287 287 286 285 285 284 283 283 283 283 283 283 283 282 282 281 280 279 277 276 274 273 272 270 269 267 266 265 264 262 260 259 258 257 255 254 254 254 253 252 250 247 246 245 244 243 243 241 240 240 237 233 232 230 228 225 223 222
271 271 272 273 274 274 274 276 277 277 277 277 278 279 280 282 283 284 286 287 287 288 288 288 288 288 287 287 286 286 285 285 284 283 283 284 284 284 284 283 283 282 280 280 278 277 276 275 273 272 270 269 268 266 265 263 262 260 258 257 256 254 253 252 251 251 250 249 246 243 243 242 241 240 240 238 237 235 232 230 228 226 224 222 221
272 271 271 272 272 272 274 276 277 277 278 278 280 281 282 283 285 286 287 287 287 288 288 288 288 287 287 286 286 285 285 284 284 284 284 285 285 285 284 283 282 281 280 279 278 277 275 274 273 271 269 268 267 266 264 263 261 259 257 255 254 253 251 250 249 249 248 247 245 242 241 240 238 238 238 236 235 233 230 227 225 224 223 221 220
272 271 271 272 272 273 275 277 278 278 279 280 281 282 284 285 286 287 287 287 287 288 288 288 287 287 287 286 285 285 284 284 284 284 284 285 285 285 284 283 281 280 279 278 277 276 275 273 271 270 268 267 266 265 264 262 260 259 257 254 252 251 250 248 247 246 245 245 244 241 239 238 236 236 236 234 233 231 228 225 223 221 221 220 217
271 271 271 272 273 275 276 278 279 280 281 282 283 284 285 286 286 287 287 287 288 288 288 287 287 286 286 285 285 284 284 284 283 283 284 285 285 284 283 282 281 280 279 278 277 275 273 271 270 269 268 267 266 265 263 261 259 257 256 254 251 249 248 246 244 244 242 241 241 240 238 236 235 233 232 232 231 230 226 224 222 220 219 217 215
270 271 272 273 275 276 277 278 280 282 283 284 285 286 286 286 286 287 287 288 289 288 288 287 287 286 285 284 284 284 283 284 283 283 284 284 284 284 283 282 280 279 278 276 275 273 272 270 269 268 267 267 266 264 263 260 258 255 254 252 250 249 246 244 241 240 239 238 238 238 237 235 234 231 230 230 230 228 224 221 220 218 216 215 213
272 272 273 275 276 278 279 280 282 284 285 286 286 287 287 286 287 288 289 289 289 288 288 287 287 286 285 284 284 284 284 284 283 283 283 283 284 284 283 281 279 278 276 275 274 272 271 270 268 267 266 266 265 263 261 259 257 255 252 249 248 247 245 242 239 237 237 236 235 235 234 233 232 230 229 229 228 226 222 219 218 216 215 214 213
273 274 275 276 278 279 281 282 283 285 286 286 287 288 288 288 288 288 289 289 288 288 287 287 286 286 285 285 285 285 285 284 284 283 283 283 283 283 282 280 278 277 275 274 273 272 270 269 268 266 265 264 262 260 258 257 256 255 252 249 246 245 243 241 238 235 234 233 232 232 232 232 232 230 227 227 227 224 221 219 217 216 215 214 213
275 276 276 278 279 280 282 284 285 285 286 287 288 289 289 289 289 289 289 289 288 287 287 287 287 286 286 285 285 285 285 285 284 283 283 283 283 282 280 279 277 276 275 274 273 271 270 269 267 265 264 261 259 258 257 256 256 255 253 250 246 243 241 239 237 234 232 231 230 230 229 230 231 229 226 225 225 222 220 218 217 217 216 214 213
275 275 276 278 280 280 282 285 285 286 287 289 289 290 290 290 290 289 289 289 288 288 288 287 287 286 286 286 286 286 285 284 284 284 284 284 283 281 279 278 277 276 275 274 273 272 271 269 267 264 261 257 255 255 255 255 254 253 253 250 246 242 239 237 235 233 230 229 229 228 227 227 228 228 225 223 222 221 220 217 216 216 216 215 213
272 274 277 280 281 282 284 286 286 287 289 290 290 290 290 290 290 289 289 289 289 288 288 288 287 287 287 286 286 286 285 284 284 284 284 283 281 280 278 278 277 276 275 274 273 272 270 269 266 262 257 253 252 252 253 253 253 253 252 251 247 243 238 235 234 232 229 228 227 226 225 225 226 226 224 222 221 222 221 219 217 216 216 215 212
274 278 281 282 284 285 286 287 288 289 290 290 290 290 290 290 290 290 290 290 289 289 288 288 288 287 286 286 285 285 285 284 284 283 283 281 280 279 278 278 277 276 274 273 272 271 269 267 264 259 254 251 251 251 252 253 253 252 251 251 248 244 239 234 232 231 229 227 226 225 223 223 223 224 223 221 221 222 221 219 217 214 212 212 210
278 281 284 285 287 287 288 289 290 290 290 291 291 291 291 290 290 291 291 290 289 289 289 288 288 287 286 285 284 284 284 284 284 283 281 280 279 279 278 277 276 274 273 273 272 271 268 265 261 257 254 253 252 252 252 252 252 251 250 250 248 246 240 234 231 229 228 227 226 224 222 221 221 221 221 221 220 220 219 218 215 211 210 209 208
281 283 286 287 288 289 289 290 290 290 291 291 291 291 291 291 291 291 291 290 290 289 289 289 288 287 286 286 285 285 285 285 283 282 281 279 279 278 277 276 275 274 274 273 271 270 268 264 260 257 254 253 252 252 251 251 251 250 249 248 247 246 241 234 230 228 227 226 225 223 221 220 220 220 220 220 219 218 217 216 214 211 209 208 208
283 285 286 287 289 290 290 291 291 291 292 292 292 292 292 292 292 291 290 290 290 290 289 289 288 287 287 287 287 286 286 285 283 281 280 279 278 277 276 276 276 275 275 273 272 269 267 264 261 257 255 253 251 251 250 250 250 249 247 246 245 244 241 235 230 227 226 225 224 222 220 219 218 218 218 218 217 216 215 214 213 211 209 208 206
283 285 286 288 289 290 291 292 292 292 292 292 292 292 293 293 292 291 290 290 290 289 289 289 288 288 288 288 287 286 286 285 283 281 280 279 278 277 277 277 276 276 275 274 272 269 267 264 261 257 255 253 251 250 250 249 248 247 246 244 243 242 240 235 230 226 225 224 223 221 219 218 217 216 216 216 215 214 214 213 212 212 210 208 207
284 285 287 289 290 291 292 293 293 292 291 291 292 293 293 292 291 290 290 290 290 290 290 289 289 289 288 288 287 286 286 285 283 281 280 279 278 278 278 277 277 276 275 273 272 270 267 264 261 258 255 253 251 250 249 248 246 245 244 242 241 241 238 234 229 225 223 223 222 220 218 217 216 215 214 214 214 213 213 212 212 213 211 210 208
286 287 288 290 291 292 292 292 291 291 291 292 293 293 291 291 290 290 290 290 290 290 290 290 289 289 288 288 287 287 286 285 283 282 281 280 280 280 279 279 278 277 276 274 272 270 267 264 261 258 255 253 251 249 248 247 245 243 242 241 240 238 236 232 228 224 222 221 220 219 216 215 215 214 213 213 213 212 212 211 211 212 212 212 210
286 287 289 290 291 291 291 291 291 292 292 293 293 292 291 291 291 291 291 291 291 291 290 290 289 289 289 289 288 288 287 286 285 284 284 283 282 282 281 280 279 277 276 274 272 270 268 265 262 258 256 253 250 248 247 245 244 242 240 239 237 235 233 231 227 223 220 219 218 216 214 213 213 213 212 212 212 211 211 209 209 211 213 212 210
285 287 288 289 290 290 291 291 292 292 293 293 292 291 291 291 292 292 292 292 292 291 291 290 290 291 291 291 290 289 289 288 288 287 286 285 284 283 282 281 279 277 275 274 272 269 267 265 262 258 255 252 249 247 245 243 241 239 238 236 235 233 231 228 225 221 219 217 215 214 213 212 212 212 211 211 211 210 210 208 208 210 211 209 208
284 286 287 287 288 290 291 292 292 292 292 292 292 292 292 292 293 293 293 293 292 291 291 292 293 293 293 292 292 291 291 291 290 289 288 287 287 285 284 282 280 277 275 273 271 268 266 264 261 258 254 251 247 245 243 241 239 237 235 233 232 230 228 226 223 219 217 215 213 212 211 210 210 210 210 210 210 209 208 207 206 208 208 207 206
283 285 286 287 289 291 292 292 292 292 292 293 293 293 293 293 294 294 293 293 292 293 294 295 295 294 294 294 294 294 294 293 292 291 291 290 288 287 285 282 280 277 274 272 270 267 264 261 259 256 253 249 245 243 241 239 237 235 232 230 229 227 225 223 220 217 215 213 212 211 209 208 208 209 209 210 209 208 207 206 206 206 206 205 205
284 285 286 287 290 291 291 292 292 293 294 294 294 294 294 294 295 294 294 294 295 295 296 297 297 297 296 296 296 296 296 295 295 294 293 292 290 288 286 283 279 275 272 270 268 265 262 259 256 253 250 247 243 240 238 236 234 232 229 227 226 225 223 221 218 215 213 211 210 209 208 207 207 207 208 208 208 207 206 206 205 205 205 204 204
285 286 287 289 291 292 292 292 293 294 295 295 295 295 295 295 295 295 296 296 297 298 299 299 299 299 299 299 299 298 298 298 297 296 295 293 292 289 285 281 277 274 271 269 266 264 261 257 254 249 246 243 240 237 235 232 231 229 227 224 223 222 220 219 216 213 211 210 208 207 206 205 205 205 206 206 207 206 205 205 205 204 204 204 203
287 288 289 290 292 293 293 293 293 294 295 295 295 295 295 295 296 297 298 299 300 302 302 301 301 301 301 301 301 301 300 300 299 298 296 294 291 288 284 281 278 275 273 270 267 264 260 256 252 247 242 239 236 234 231 228 227 227 224 221 219 218 217 216 214 211 209 208 206 205 205 204 203 204 204 205 205 205 204 204 204 203 203 203 202
288 289 291 292 293 294 294 293 293 293 294 295 296 296 296 297 298 298 300 302 304 304 303 303 304 304 304 304 303 303 302 301 300 299 297 294 291 287 285 283 280 278 275 272 267 263 258 254 250 245 240 236 233 230 227 225 224 223 221 218 216 215 214 214 211 209 207 206 205 204 203 202 202 202 202 203 203 203 203 203 203 203 203 203 201
290 292 294 294 296 296 295 293 292 293 293 295 297 298 298 299 300 301 303 305 306 306 306 307 308 308 307 307 306 305 303 303 303 301 299 296 293 291 288 286 283 280 277 273 267 262 256 251 247 242 237 233 229 227 224 221 220 220 217 214 213 212 212 211 209 206 205 204 203 202 202 201 200 200 201 201 201 201 201 201 201 201 202 202 201
294 296 296 296 297 297 295 293 293 294 295 297 299 300 300 301 304 306 307 308 309 310 311 312 312 311 310 310 309 308 307 306 305 303 301 299 297 295 292 290 287 284 280 274 267 259 253 248 243 238 233 229 226 223 220 218 217 216 213 211 210 210 209 209 206 204 203 203 201 201 200 199 199 199 199 199 200 200 200 200 200 200 201 201 201
297 298 298 297 297 297 295 294 295 297 298 299 300 301 303 306 309 311 310 310 312 313 315 316 315 315 314 313 313 312 311 310 308 306 305 303 301 299 297 295 292 289 285 277 268 258 249 243 238 233 229 225 221 219 217 214 213 212 210 208 207 207 207 206 204 202 202 201 199 199 199 198 198 198 198 198 199 199 199 199 199 199 199 199 200
298 297 297 297 297 296 296 296 298 300 300 301 302 306 310 312 314 314 314 315 316 317 318 319 319 318 318 318 318 317 316 315 312 311 309 308 306 304 304 301 298 294 291 284 273 259 245 237 231 227 223 220 216 214 212 210 209 208 207 205 203 203 203 203 201 200 200 199 198 198 197 196 196 197 197 197 198 198 199 200 199 199 199 198 199
299 298 297 297 297 297 298 300 302 302 303 306 311 315 317 318 319 320 321 323 324 324 323 323 323 324 324 324 324 324 322 320 318 317 317 316 313 313 312 309 304 301 300 295 282 258 237 227 221 217 215 213 210 208 206 205 204 203 202 201 200 200 200 199 198 198 197 196 196 196 196 195 195 196 196 196 197 198 199 200 200 200 200 199 198
301 299 298 298 300 301 304 306 307 308 311 316 319 321 323 324 326 328 329 330 330 330 328 328 330 331 331 331 331 331 329 328 326 325 326 326 323 322 321 319 314 310 308 304 288 248 220 211 207 206 205 205 203 202 200 199 199 199 198 196 196 196 197 196 195 195 195 194 194 195 194 194 194 195 195 196 197 198 198 200 200 200 200 200 199
302 301 301 302 305 308 310 312 313 316 320 324 326 328 331 333 334 334 335 336 336 335 334 335 337 338 338 338 338 338 337 336 334 332 335 337 335 333 331 329 325 321 316 309 285 222 200 195 195 196 196 196 195 194 193 193 194 194 193 192 193 193 194 193 193 193 193 192 193 193 193 193 194 194 195 195 196 197 198 199 200 200 200 201 201
302 303 305 310 315 319 321 321 323 326 330 332 335 337 338 339 340 340 340 341 341 341 341 342 343 345 345 345 345 344 344 344 342 342 344 346 345 344 343 341 338 336 335 330 274 196 186 185 187 187 186 187 187 187 187 188 189 189 189 189 190 190 191 191 191 191 191 191 192 192 192 193 194 194 194 195 196 196 197 199 200 200 200 201 201
310 315 321 328 334 337 337 337 336 338 341 342 343 343 344 344 346 346 345 346 347 348 348 348 350 351 352 351 351 352 353 352 351 349 351 354 355 355 358 359 358 360 13 36 81 145 160 169 177 180 181 182 182 182 182 183 184 185 186 187 187 188 188 188 188 188 189 189 190 191 191 192 193 194 194 195 195 196 197 198 199 199 200 200 201
342 345 348 352 354 351 347 347 348 350 350 348 348 349 350 350 350 350 351 352 354 354 354 355 356 357 357 357 358 360 0 359 357 354 356 0 2 4 9 15 20 25 40 60 88 123 142 154 165 171 174 175 176 176 178 180 182 183 184 185 185 186 186 186 185 186 187 188 189 189 190 191 192 193 193 194 195 195 196 197 198 199 199 200 201
14 15 10 6 360 353 350 353 356 356 355 354 355 356 356 355 355 356 356 358 359 360 0 1 1 2 3 2 3 6 7 5 4 3 4 6 9 13 18 23 29 37 49 68 96 121 134 141 149 158 164 168 171 174 177 179 180 181 182 183 184 184 184 183 184 185 186 187 188 188 189 190 191 192 192 193 193 194 195 196 197 198 198 200 200
33 26 13 3 359 356 357 359 0 0 1 3 4 4 2 2 2 2 1 3 4 5 6 6 6 7 8 8 9 12 14 12 11 12 12 12 15 22 27 31 35 43 55 76 98 115 126 132 141 150 159 165 169 172 174 176 178 179 181 182 182 181 181 182 183 185 186 186 187 187 188 189 190 191 192 192 193 193 194 195 196 196 198 199 200
32 18 8 4 3 5 7 8 8 9 11 11 10 9 8 9 9 7 6 7 9 10 11 12 11 11 13 14 15 18 20 20 19 20 20 20 22 27 33 38 43 50 63 80 97 110 120 128 136 146 154 162 167 170 171 174 176 178 180 180 179 178 179 181 182 184 185 185 186 187 188 189 189 190 191 192 192 193 194 194 195 196 197 199 199
22 19 18 18 18 19 20 20 19 19 18 15 13 13 13 14 15 14 12 11 13 14 15 16 16 16 17 19 21 22 23 24 25 26 27 28 30 33 37 44 52 62 74 86 98 109 118 126 134 142 149 156 162 166 170 173 175 176 176 175 175 176 178 180 181 182 184 185 186 186 187 187 188 189 190 191 192 193 194 194 195 196 197 199 199
33 33 31 30 31 32 32 31 28 25 23 20 17 16 17 18 19 19 17 16 17 18 18 19 20 21 21 23 25 27 28 28 29 30 31 33 36 39 43 47 55 65 77 89 101 113 124 131 138 144 151 157 162 167 170 172 172 172 172 173 174 175 177 179 181 183 184 185 185 185 186 187 188 189 190 190 191 193 193 194 195 197 198 198 198
46 44 41 39 39 39 39 36 32 29 27 24 22 20 20 21 23 23 22 22 21 21 22 22 24 25 25 26 29 31 33 32 32 33 35 37 40 43 48 52 57 65 75 86 97 109 123 135 144 150 156 160 163 165 166 166 167 169 171 173 175 177 178 180 182 183 184 184 184 185 186 187 188 189 190 190 191 192 193 194 195 197 197 198 198
50 48 45 43 42 42 40 37 34 32 30 28 25 23 22 24 25 25 26 26 26 25 25 26 27 28 29 30 31 33 36 37 37 37 38 40 43 46 50 56 61 67 74 83 93 102 111 122 132 140 146 151 155 158 161 163 165 168 171 174 176 178 180 181 182 183 184 184 184 185 186 188 189 190 190 191 192 193 194 195 196 197 198 199 199
50 48 46 44 44 45 43 41 38 36 33 31 28 26 25 26 26 27 28 29 29 29 29 29 30 31 32 32 33 35 37 40 41 41 42 44 46 49 52 57 62 68 74 81 87 95 103 111 119 126 133 140 147 154 159 162 165 168 172 174 177 178 180 182 183 183 184 184 185 186 188 189 190 190 191 191 192 193 194 195 197 198 199 199 199
50 50 49 48 48 47 45 43 41 39 36 33 31 29 28 28 28 28 29 30 31 32 31 31 32 33 34 35 35 36 38 40 43 44 44 46 49 53 56 59 63 67 73 78 84 90 96 103 111 118 125 132 140 147 154 160 165 169 173 176 178 179 181 183 183 184 184 185 186 187 189 189 190 191 191 192 193 194 194 196 197 199 200 200 200
53 54 53 51 49 47 44 43 41 39 37 35 33 31 30 30 29 30 30 31 32 33 34 34 34 35 36 37 37 37 39 41 43 45 46 47 49 53 57 62 65 67 71 75 82 87 93 98 105 112 120 127 134 141 148 155 161 166 170 173 176 179 181 182 183 184 185 186 187 188 189 190 190 191 192 193 193 194 195 196 198 199 200 201 201
55 55 54 52 50 47 45 43 41 40 38 37 35 34 32 32 31 31 31 31 32 33 35 36 36 37 38 38 39 39 40 41 43 46 48 49 49 51 55 60 65 68 70 72 77 82 89 95 101 107 114 120 127 133 141 148 154 159 164 168 172 174 177 179 182 184 185 187 188 189 190 190 191 192 193 193 193 194 195 196 198 199 201 201 201